Regional Weather Roundup
Issued by NWS State College, PA

Home | Current Version | Previous Version | Graphics & Text | Print | Product List | Glossary On
Versions: 1 2 3 4 5 6 7 8 9 10 11 12 13 14 15 16 17 18 19 20 21 22 23 24 25 26 27 28 29 30 31 32 33 34 35 36 37 38 39 40 41 42 43 44 45 46 47 48 49 50
000
ASUS41 KCTP 040203
RWRCTP

REGIONAL WEATHER ROUNDUP
NATIONAL WEATHER SERVICE STATE COLLEGE PA
1000 PM EDT MON AUG 03 2015

Note: "fair" indicates few or no clouds below 12,000 feet with no
significant weather and/or obstructions to visibility.

* = STATION THAT DOES NOT REPORT PRECIPITATION /E.G. RAIN...SNOW...ETC/
    THUNDER OR FOG.

PAZ002>004-007>009-013>016-020>023-029>032-040300-
WESTERN PENNSYLVANIA

CITY           SKY/WX    TMP DP  RH WIND       PRES   REMARKS
ERIE           MOCLDY    70  62  76 S3        29.81S
MEADVILLE      MOCLDY    69  59  70 N6        29.84R
FRANKLIN*      MOCLDY    68  55  64 CALM      29.86R
NEW CASTLE     FAIR      67  65  93 CALM      29.85R
BEAVER COUNTY  NOT AVBL
BUTLER*        CLOUDY    64  63  94 S5        29.86R
PITTSBURGH INT CLOUDY    68  63  84 NE3       29.86R THUNDER
PITTSBURGH     MOCLDY    67  63  87 S6        29.85R
INDIANA*       NOT AVBL
LATROBE        MOCLDY    66  66 100 CALM      29.86R
WASHINGTON CO* NOT AVBL
$$

PAZ004>006-010>012-017>019-024>028-033>037-041-042-045-046-049>053-040300-
CENTRAL PENNSYLVANIA

CITY           SKY/WX    TMP DP  RH WIND       PRES   REMARKS
BRADFORD       CLEAR     66  56  70 S3        29.88R
DUBOIS         MOCLDY    68  63  84 S3        29.87R
CLEARFIELD     MOCLDY    69  62  78 SW6       29.87R
JOHNSTOWN      MOCLDY    69  60  73 S6        29.89F
ALTOONA        MOCLDY    71  62  73 SW3       29.87S
STATE COLLEGE  NOT AVBL
WILLIAMSPORT   MOCLDY    76  61  59 N7        29.79R
SELINSGROVE    CLOUDY    71  67  87 CALM      29.81R
FT INDIANTOWN  MOCLDY    71  69  93 CALM      29.82R
CAPITAL CITY   PTCLDY    81  63  54 SW12      29.81R
HARRISBURG     MOCLDY    82  64  54 SW9       29.80R
YORK           MOCLDY    77  63  61 SW6       29.83R
$$

PAZ038>040-043-044-047-048-054-055-060>062-067>071-040300-
EASTERN PENNSYLVANIA

CITY           SKY/WX    TMP DP  RH WIND       PRES   REMARKS
SCRANTON       MOCLDY    79  62  56 SW3       29.82R
MOUNT POCONO   PTCLDY    72  61  68 SW7       29.89R
ALLENTOWN      MOCLDY    76  66  71 W6        29.83R
QUAKERTOWN*    MOCLDY    77  64  65 CALM      29.85R
READING        MOCLDY    74  66  76 NE5       29.82R
LANCASTER      MOCLDY    80  63  55 S8        29.82R
COATESVILLE    PTCLDY    75  68  78 CALM      29.86R
POTTSTOWN      PTCLDY    78  66  66 S5        29.85R
BLUE BELL      CLEAR     81  64  57 SW7       29.83R
DOYLESTOWN     PTCLDY    76  62  62 S5        29.83R
WILLOW GROVE   NOT AVBL
NORTH PHILA    CLEAR     84  62  47 SW6       29.84R
PHILADELPHIA   PTCLDY    83  66  56 SW8       29.83R
$$



USA.gov is the U.S. government's official web portal to all federal, state and local government web resources and services.